This demonstration page uses our WeatherBlox Daily Observations layout. Learn more.

Left ArrowRight Arrow

44.31136, -96.79839

Hourly Observations for May 18, 2022

Temp ( °F °C ) Dew Point ( °F °C ) Humidity (%) Winds ( mph kmh ) Pressure ( in mb ) Visibility ( mi km ) Precip ( " mm )
12:56 am 00:56 Cloudy 53 11.7 51 10.6 93 93 Calm 29.92 1013 10 16 0.00 0.00
1:56 am 01:56 Clear 51 10.6 50 10 96 96 NNE 5 7 29.90 1013 7 11 0.00 0.00
2:56 am 02:56 Clear 51 10.6 50 10 96 96 E 7 11 29.91 1013 8 13 0.00 0.00
3:56 am 03:56 Clear with Mist and Fog 49 9.4 49 9.4 100 100 ESE 5 7 29.93 1014 5 8 0.00 0.00
4:30 am 04:30 Clear with Mist and Fog 48 9 48 9 100 100 Calm 29.90 1012 3 4 0.00 0.00
4:34 am 04:34 Mostly Cloudy with Mist and Fog 48 9 48 9 100 100 Calm 29.90 1012 1 2 0.00 0.00
4:38 am 04:38 Mostly Cloudy with Fog 46 8 46 8 100 100 NNW 3 6 29.90 1013 0 0 0.00 0.00
4:56 am 04:56 Mostly Cloudy with Fog 45 7.2 45 7.2 100 100 Calm 29.93 1013 0 0 0.00 0.00
5:10 am 05:10 Cloudy with Fog 45 7 45 7 100 100 NNW 3 6 29.90 1013 N/A 0.00 0.00
5:47 am 05:47 Cloudy with Fog 45 7 45 7 100 100 Calm 29.91 1013 0 0 0.00 0.00
5:56 am 05:56 Cloudy with Fog 45 7.2 44 6.7 97 97 Calm 29.93 1014 0 0 0.00 0.00
6:13 am 06:13 Cloudy with Fog 45 7 45 7 100 100 Calm 29.91 1013 N/A 0.00 0.00
6:32 am 06:32 Cloudy with Fog 46 8 46 8 100 100 Calm 29.90 1013 0 0 0.00 0.00
6:49 am 06:49 Cloudy with Fog 46 8 46 8 100 100 Calm 29.90 1013 N/A 0.00 0.00
6:56 am 06:56 Cloudy with Fog 47 8.3 47 8.3 100 100 Calm 29.93 1014 N/A 0.00 0.00
7:56 am 07:56 Cloudy with Fog 50 10 49 9.4 96 96 Calm 29.93 1014 N/A 0.01 0.25
8:53 am 08:53 Cloudy with Fog 54 12 50 10 88 88 Calm 29.88 1012 0 0 0.00 0.00
8:56 am 08:56 Cloudy with Fog 53 11.7 51 10.6 93 93 Calm 29.92 1013 0 0 0.00 0.00
9:23 am 09:23 Cloudy with Fog 55 13 52 11 88 88 Calm 29.86 1011 1 1 0.00 0.00
9:37 am 09:37 Cloudy with Haze 57 14 52 11 82 82 WSW 5 7 29.86 1011 2 3 0.00 0.00
9:43 am 09:43 Cloudy with Haze 57 14 52 11 82 82 W 5 7 29.87 1011 3 5 0.00 0.00
9:56 am 09:56 Cloudy with Haze 59 15 52 11.1 78 78 WNW 6 9 29.92 1013 6 10 0.00 0.00
10:10 am 10:10 Cloudy 61 16 52 11 72 72 Calm 29.85 1011 7 11 0.00 0.00
10:31 am 10:31 Partly Cloudy 63 17 54 12 73 73 NNW 3 6 29.85 1011 9 14 0.00 0.00
10:56 am 10:56 Sunny 66 18.9 55 12.8 68 68 VRB 3 6 29.90 1013 10 16 0.00 0.00
11:56 am 11:56 Mostly Sunny 71 21.7 56 13.3 59 59 WNW 14 22 29.88 1012 10 16 0.00 0.00
12:56 pm 12:56 Sunny 72 22.2 56 13.3 57 57 WNW 9 15 29.87 1011 10 16 0.00 0.00
1:56 pm 13:56 Mostly Sunny 72 22.2 54 12.2 53 53 WNW 16 26 29.86 1011 10 16 0.00 0.00
2:56 pm 14:56 Mostly Cloudy 70 21.1 52 11.1 53 53 WNW 10 17 29.85 1011 10 16 0.00 0.00
3:56 pm 15:56 Mostly Cloudy 76 24.4 51 10.6 42 42 WNW 15 24 29.83 1010 10 16 0.00 0.00
4:56 pm 16:56 Sunny 76 24.4 47 8.3 36 36 W 21 33 29.80 1009 10 16 0.00 0.00
5:56 pm 17:56 Sunny 76 24.4 48 8.9 37 37 WNW 24 39 29.78 1009 10 16 0.00 0.00
6:56 pm 18:56 Sunny 73 22.8 49 9.4 43 43 NW 15 24 29.77 1008 10 16 0.00 0.00
7:56 pm 19:56 Sunny 69 20.6 48 8.9 47 47 NW 12 19 29.77 1008 10 16 0.00 0.00
8:56 pm 20:56 Clear 63 17.2 48 8.9 58 58 W 10 17 29.78 1008 10 16 0.00 0.00
9:56 pm 21:56 Clear 60 15.6 45 7.2 58 58 WNW 9 15 29.78 1009 10 16 0.00 0.00
10:56 pm 22:56 Clear 55 12.8 44 6.7 67 67 WNW 5 7 29.78 1009 10 16 0.00 0.00
11:56 pm 23:56 Clear 54 12.2 44 6.7 69 69 W 3 6 29.78 1008 10 16 0.00 0.00

Powered by AerisWeather